[[{"header":{"parameterUnit":"m.s-1","parameterCategory":1,"la1":30.2991,"la2":30.254,"lo1":-89.0895,"lo2":-89.0444,"dy":0.0017,"dx":0.0017,"nx":28,"ny":28,"refTime":"2023-10-30T09:00:00:Z","depth":0,"parameterNumber":2,"parameterNumberName":"U-component_of_WINDS"},"data":[0,0,0,0,0,0,0,0,0,0,0,0,0,0,0,0,0,0,0,0,0,0,0,0,0,0,0,0,0,0,0,0,0,0,0,0,0,0,0,0,0,0,0,0,0,0,0,0,0,0,0,0,0,0,0,0,0,0,-0.6098,-0.61,0,-0.6216,-0.6218,-0.6219,-0.6241,-0.624,-0.6239,-0.6238,-0.6361,-0.6365,-0.637,0,0,0,0,0,0,0,0,0,0,0,0,0,-0.5894,-0.5897,-0.6098,-0.61,-0.6101,-0.6216,-0.6218,-0.6219,-0.6241,-0.624,-0.6239,-0.6237,-0.636,-0.6365,-0.637,0,0,0,0,0,0,0,0,0,0,0,0,0,-0.5994,-0.5898,-0.6098,-0.6126,-0.6129,-0.6216,-0.6218,-0.622,-0.6241,-0.624,-0.6238,-0.6237,-0.6358,-0.6364,-0.6371,-0.6438,0,0,-0.639,-0.6393,0,0,0,0,0,0,0,0,-0.5988,-0.6002,-0.612,-0.6124,-0.6128,-0.6212,-0.6191,-0.6293,-0.6242,-0.6199,-0.6238,-0.6236,-0.6313,-0.6323,-0.6348,-0.6444,-0.6449,-0.639,-0.6394,-0.6397,-0.6399,0,0,0,0,0,0,0,-0.5981,-0.5997,-0.6145,-0.6122,-0.6127,-0.6133,-0.6146,-0.621,-0.6263,-0.6202,-0.6204,-0.6218,-0.6315,-0.6342,-0.6351,-0.6451,-0.639,-0.6396,-0.64,-0.6402,-0.6608,-0.661,0,0,0,0,0,0,-0.5969,-0.5991,-0.6141,-0.6149,-0.6053,-0.6138,-0.6152,-0.6187,-0.6262,-0.6272,-0.6219,-0.6218,-0.6332,-0.6344,-0.6356,-0.644,-0.6397,-0.6403,-0.6406,-0.6606,-0.6608,-0.661,0,0,0,0,0,0,-0.5965,-0.5982,-0.6136,-0.607,-0.609,-0.6143,-0.6182,-0.619,-0.6217,-0.6274,-0.6284,-0.6237,-0.6332,-0.6347,-0.6417,-0.6444,-0.6406,-0.6411,-0.6604,-0.6607,-0.6609,-0.6608,0,0,0,0,0,0,-0.5959,-0.5981,-0.6007,-0.6071,-0.6094,-0.6195,-0.6183,-0.6193,-0.6228,-0.6228,-0.6294,-0.6304,-0.6332,-0.6408,-0.6424,-0.6452,-0.6416,-0.6602,-0.6606,-0.6609,-0.6606,-0.661,-0.6614,0,0,0,0,0,-0.5951,-0.6002,-0.6008,-0.6026,-0.6127,-0.6197,-0.621,-0.6241,-0.623,-0.6256,-0.6293,-0.6302,-0.6439,-0.6415,-0.6433,-0.6464,-0.6601,-0.6605,-0.6608,-0.6604,-0.6609,-0.6614,0,0,0,0,0,0,-0.5941,-0.6011,-0.6018,-0.6091,-0.6138,-0.62,-0.6235,-0.6245,-0.6297,-0.6295,-0.6332,-0.6347,-0.6415,-0.6446,-0.6419,-0.6533,-0.6519,-0.6527,-0.651,-0.6515,-0.6519,-0.651,-0.6421,0,0,0,0,0,-0.5947,-0.5997,-0.6056,-0.6115,-0.6138,-0.6182,-0.6214,-0.6233,-0.6283,-0.6304,-0.6346,-0.6395,-0.6449,-0.6484,-0.6537,-0.6611,-0.6625,-0.6641,-0.6645,-0.6648,-0.6654,-0.6695,-0.6702,-0.6623,-0.6623,-0.6623,0,0,-0.5961,-0.6005,-0.6035,-0.6114,-0.6152,-0.6204,-0.6199,-0.6254,-0.6293,-0.6312,-0.6381,-0.6413,-0.6471,-0.6543,-0.6577,-0.6571,-0.6679,-0.6653,-0.6654,-0.6659,-0.6699,-0.6707,-0.6713,-0.6625,-0.6625,-0.6625,0,0,-0.6011,-0.605,-0.6103,-0.6141,-0.6199,-0.6228,-0.624,-0.6302,-0.6324,-0.6393,-0.6408,-0.6455,-0.6548,-0.6588,-0.662,-0.6685,-0.6695,-0.6701,-0.6722,-0.6762,-0.6768,-0.6774,-0.6797,-0.6804,-0.6707,-0.6707,-0.6707,0,-0.6021,-0.6098,-0.6129,-0.6183,-0.6217,-0.6236,-0.629,-0.6326,-0.6399,-0.6422,-0.6415,-0.6531,-0.6571,-0.6652,-0.6668,-0.6694,-0.6709,-0.6694,-0.6764,-0.6771,-0.6776,-0.6799,-0.6807,-0.6708,-0.6708,-0.6708,-0.6708,0,-0.6107,-0.6161,-0.6197,-0.6265,-0.6303,-0.6357,-0.6396,-0.6431,-0.6447,-0.6477,-0.6547,-0.6596,-0.6658,-0.6679,-0.6696,-0.6763,-0.6758,-0.6757,-0.6744,-0.6784,-0.6805,-0.6814,-0.6708,-0.6708,-0.6708,-0.6708,0,0,-0.6155,-0.6239,-0.6251,-0.6282,-0.6347,-0.6389,-0.6444,-0.6505,-0.6534,-0.6583,-0.663,-0.6708,-0.6707,-0.6744,-0.6765,-0.68,-0.6847,-0.6795,-0.6797,-0.6803,-0.6924,-0.6924,-0.6933,-0.6854,-0.6856,-0.6857,-0.6919,0,-0.6213,-0.631,-0.6339,-0.6421,-0.6471,-0.6489,-0.6537,-0.6582,-0.6611,-0.6658,-0.6691,-0.6745,-0.674,-0.6762,-0.6797,-0.6834,-0.6872,-0.683,-0.6898,-0.69,-0.6883,-0.6944,-0.6945,-0.7001,-0.6928,-0.6929,-0.693,0,-0.6294,-0.6344,-0.643,-0.6488,-0.651,-0.6552,-0.6609,-0.6654,-0.6706,-0.6724,-0.6765,-0.6783,-0.6841,-0.6824,-0.6905,-0.6875,-0.6905,-0.6927,-0.693,-0.6937,-0.6917,-0.6954,-0.702,-0.7028,-0.6944,-0.6943,-0.6942,0,-0.632,-0.6409,-0.6471,-0.6497,-0.6566,-0.6596,-0.6626,-0.6676,-0.671,-0.6761,-0.6783,-0.684,-0.6871,-0.6915,-0.6948,-0.6933,-0.7025,-0.7011,-0.7043,-0.7042,-0.7062,-0.706,-0.7134,-0.7081,-0.7081,-0.7081,-0.7081,0,-0.6382,-0.6434,-0.6484,-0.6523,-0.6581,-0.6614,-0.6672,-0.6703,-0.6747,-0.6793,-0.6812,-0.6855,-0.6895,-0.6943,-0.697,-0.7032,-0.7046,-0.7063,-0.707,-0.7062,-0.7059,-0.7082,-0.7078,-0.7083,-0.7083,-0.7082,-0.7082,0,-0.6421,-0.6456,-0.6526,-0.6585,-0.6601,-0.6642,-0.6693,-0.6732,-0.6761,-0.6818,-0.6834,-0.6881,-0.6938,-0.6975,-0.7049,-0.7066,-0.7134,-0.714,-0.7117,-0.712,-0.7149,-0.7145,-0.7239,-0.7253,-0.7191,-0.7192,-0.7192,0,-0.6458,-0.6498,-0.6561,-0.6593,-0.6623,-0.6673,-0.6708,-0.6741,-0.6777,-0.6838,-0.6869,-0.6928,-0.6976,-0.7067,-0.7108,-0.7164,-0.7171,-0.72,-0.718,-0.717,-0.7171,-0.7168,-0.7172,-0.7203,-0.7204,-0.7204,-0.7204,0,-0.652,-0.6535,-0.6584,-0.6639,-0.6679,-0.6724,-0.6769,-0.6794,-0.6835,-0.6874,-0.6933,-0.697,-0.7044,-0.7102,-0.7162,-0.7194,-0.7206,-0.721,-0.7221,-0.7213,-0.7197,-0.7206,-0.7125,-0.7208,-0.7208,-0.7208,-0.7207,-0.7207,-0.6559,-0.6595,-0.6645,-0.6699,-0.6736,-0.6777,-0.6816,-0.685,-0.6899,-0.6961,-0.6978,-0.7039,-0.709,-0.7171,-0.7204,-0.7252,-0.7249,-0.7264,-0.7267,-0.727,-0.727,-0.719,-0.7263,-0.7263,-0.7263,-0.7263,-0.7263,0,-0.6622,-0.6654,-0.6703,-0.6765,-0.6807,-0.6814,-0.6864,-0.6899,-0.6952,-0.6997,-0.7044,-0.7111,-0.7167,-0.7212,-0.727,-0.73,-0.7307,-0.7314,-0.7312,-0.7319,-0.7271,-0.7256,-0.7307,-0.7307,-0.7307,-0.7307,-0.7307,-0.7307,-0.6659,-0.6721,-0.6742,-0.6822,-0.6855,-0.6914,-0.6942,-0.698,-0.7016,-0.709,-0.7136,-0.7164,-0.721,-0.7271,-0.7322,-0.7334,-0.7355,-0.736,-0.7373,-0.7327,-0.7322,-0.7318,-0.7304,-0.7364,-0.7364,-0.7417,-0.7418,-0.7418]},{"header":{"parameterUnit":"m.s-1","parameterCategory":1,"la1":30.2991,"la2":30.254,"lo1":-89.0895,"lo2":-89.0444,"dy":0.0017,"dx":0.0017,"nx":28,"ny":28,"refTime":"2023-10-30T09:00:00:Z","depth":0,"parameterNumber":3,"parameterNumberName":"V-component_of_WINDS"},"data":[0,0,0,0,0,0,0,0,0,0,0,0,0,0,0,0,0,0,0,0,0,0,0,0,0,0,0,0,0,0,0,0,0,0,0,0,0,0,0,0,0,0,0,0,0,0,0,0,0,0,0,0,0,0,0,0,0,0,-1.5704,-1.5704,0,-1.5703,-1.5703,-1.5703,-1.5688,-1.5688,-1.5687,-1.5687,-1.5685,-1.5685,-1.5685,0,0,0,0,0,0,0,0,0,0,0,0,0,-1.569,-1.5691,-1.5704,-1.5704,-1.5704,-1.5703,-1.5703,-1.5703,-1.5688,-1.5688,-1.5687,-1.5687,-1.5685,-1.5685,-1.5685,0,0,0,0,0,0,0,0,0,0,0,0,0,-1.5694,-1.5691,-1.5704,-1.5696,-1.5695,-1.5703,-1.5703,-1.5703,-1.5688,-1.5688,-1.5687,-1.5687,-1.5684,-1.5685,-1.5685,-1.57,0,0,-1.5687,-1.5687,0,0,0,0,0,0,0,0,-1.5693,-1.5694,-1.5697,-1.5697,-1.5696,-1.5695,-1.5698,-1.5702,-1.5688,-1.5691,-1.5687,-1.5686,-1.5688,-1.5689,-1.569,-1.57,-1.5699,-1.5687,-1.5687,-1.5687,-1.5687,0,0,0,0,0,0,0,-1.5693,-1.5694,-1.5703,-1.5697,-1.5696,-1.5692,-1.5692,-1.5698,-1.5693,-1.5691,-1.569,-1.569,-1.5688,-1.5689,-1.569,-1.5699,-1.5687,-1.5687,-1.5687,-1.5688,-1.5722,-1.5723,0,0,0,0,0,0,-1.5694,-1.5694,-1.5703,-1.5703,-1.5693,-1.5693,-1.5693,-1.5696,-1.5693,-1.5692,-1.569,-1.5689,-1.5689,-1.5689,-1.5689,-1.5707,-1.5687,-1.5688,-1.5688,-1.5721,-1.5722,-1.5723,0,0,0,0,0,0,-1.5694,-1.5695,-1.5703,-1.5698,-1.5699,-1.5694,-1.5697,-1.5696,-1.5698,-1.5693,-1.5691,-1.5693,-1.5688,-1.5689,-1.5698,-1.5706,-1.5688,-1.5688,-1.5721,-1.5722,-1.5723,-1.5741,0,0,0,0,0,0,-1.5694,-1.5695,-1.5701,-1.5699,-1.57,-1.5712,-1.5698,-1.5697,-1.5699,-1.5697,-1.5695,-1.5694,-1.5688,-1.5697,-1.5698,-1.5707,-1.5689,-1.572,-1.5721,-1.5722,-1.5739,-1.5742,-1.5745,0,0,0,0,0,-1.5693,-1.5705,-1.5701,-1.5702,-1.5706,-1.5712,-1.5713,-1.5707,-1.5699,-1.5705,-1.5702,-1.5694,-1.5705,-1.5698,-1.5699,-1.5708,-1.5719,-1.5721,-1.5722,-1.5738,-1.5742,-1.5745,0,0,0,0,0,0,-1.5707,-1.5705,-1.57,-1.5712,-1.5713,-1.571,-1.5716,-1.5711,-1.5713,-1.5711,-1.5703,-1.5703,-1.5713,-1.5711,-1.5703,-1.5722,-1.5711,-1.5713,-1.5723,-1.5726,-1.5729,-1.5729,-1.5689,0,0,0,0,0,-1.5712,-1.5718,-1.5715,-1.5725,-1.5726,-1.5722,-1.5724,-1.5719,-1.5719,-1.5719,-1.5717,-1.5717,-1.5721,-1.5723,-1.5726,-1.5739,-1.5739,-1.5746,-1.5749,-1.5751,-1.5752,-1.576,-1.5763,-1.5728,-1.5728,-1.5728,0,0,-1.5721,-1.5721,-1.5724,-1.5728,-1.5728,-1.5734,-1.5722,-1.5728,-1.5732,-1.572,-1.5729,-1.5727,-1.5727,-1.5738,-1.5743,-1.5737,-1.5762,-1.5753,-1.5755,-1.5755,-1.5762,-1.5765,-1.5768,-1.5729,-1.5729,-1.5728,0,0,-1.5741,-1.5741,-1.5751,-1.5751,-1.5752,-1.5749,-1.5751,-1.575,-1.5749,-1.5757,-1.5749,-1.5753,-1.576,-1.576,-1.5761,-1.5783,-1.5776,-1.5784,-1.5798,-1.5805,-1.5808,-1.5811,-1.5819,-1.5822,-1.5786,-1.5786,-1.5786,0,-1.5752,-1.5761,-1.5756,-1.5763,-1.5766,-1.5756,-1.5765,-1.5766,-1.5768,-1.5769,-1.5763,-1.5772,-1.5771,-1.5782,-1.5788,-1.5789,-1.5791,-1.5784,-1.5808,-1.5811,-1.5813,-1.5821,-1.5824,-1.5787,-1.5787,-1.5787,-1.5787,0,-1.5775,-1.5782,-1.5789,-1.5792,-1.5795,-1.5803,-1.5799,-1.5803,-1.5798,-1.5796,-1.5805,-1.5804,-1.5807,-1.581,-1.5805,-1.5821,-1.5817,-1.581,-1.5798,-1.5818,-1.5825,-1.5827,-1.5789,-1.5788,-1.5788,-1.5788,0,0,-1.5803,-1.5804,-1.5807,-1.5808,-1.5809,-1.5814,-1.5822,-1.5826,-1.583,-1.5831,-1.5838,-1.5845,-1.5838,-1.5839,-1.5835,-1.5841,-1.5859,-1.5833,-1.5833,-1.5838,-1.5877,-1.5883,-1.5886,-1.5855,-1.5855,-1.5856,-1.5877,0,-1.5823,-1.5837,-1.5833,-1.5848,-1.5854,-1.5846,-1.5853,-1.5854,-1.5853,-1.5857,-1.5855,-1.586,-1.5851,-1.5852,-1.5858,-1.5856,-1.5867,-1.5854,-1.5861,-1.5861,-1.5861,-1.589,-1.5896,-1.5916,-1.588,-1.5881,-1.5881,0,-1.5847,-1.5851,-1.5867,-1.5868,-1.587,-1.5877,-1.5881,-1.5885,-1.5887,-1.5885,-1.5887,-1.5882,-1.589,-1.5879,-1.589,-1.5881,-1.5884,-1.5883,-1.5884,-1.5884,-1.5872,-1.5891,-1.5922,-1.5926,-1.5885,-1.5885,-1.5885,0,-1.5866,-1.5875,-1.5886,-1.5888,-1.5889,-1.5894,-1.5895,-1.5896,-1.5899,-1.5902,-1.5904,-1.5908,-1.591,-1.5913,-1.5909,-1.5901,-1.5921,-1.5909,-1.5919,-1.592,-1.5923,-1.5923,-1.5956,-1.5925,-1.5925,-1.5925,-1.5925,0,-1.5888,-1.5898,-1.5895,-1.5901,-1.5912,-1.5908,-1.5919,-1.5918,-1.592,-1.5926,-1.5919,-1.5925,-1.5919,-1.5924,-1.5921,-1.5931,-1.5931,-1.593,-1.5929,-1.5931,-1.5931,-1.5932,-1.593,-1.5926,-1.5926,-1.5926,-1.5926,0,-1.5911,-1.5909,-1.5921,-1.5922,-1.5922,-1.593,-1.5931,-1.5937,-1.5935,-1.5943,-1.5945,-1.5942,-1.5948,-1.5945,-1.595,-1.5948,-1.5961,-1.5958,-1.5961,-1.596,-1.5971,-1.597,-1.6005,-1.601,-1.5976,-1.5977,-1.5977,0,-1.5925,-1.5933,-1.5935,-1.594,-1.5941,-1.5948,-1.5951,-1.5947,-1.5951,-1.5954,-1.596,-1.5966,-1.597,-1.598,-1.5978,-1.5983,-1.598,-1.5992,-1.5981,-1.5982,-1.598,-1.598,-1.5981,-1.5994,-1.5995,-1.5995,-1.5995,0,-1.5951,-1.595,-1.5956,-1.5962,-1.5967,-1.5971,-1.5974,-1.5978,-1.5974,-1.5979,-1.5986,-1.5989,-1.5996,-1.6002,-1.6006,-1.6006,-1.6,-1.5999,-1.6002,-1.6003,-1.6005,-1.6004,-1.5967,-1.5998,-1.5998,-1.5998,-1.5998,-1.5997,-1.597,-1.5977,-1.598,-1.5987,-1.599,-1.5993,-1.5999,-1.5999,-1.6005,-1.6011,-1.6008,-1.6016,-1.6018,-1.6023,-1.6025,-1.6031,-1.6026,-1.6029,-1.603,-1.6031,-1.6033,-1.6004,-1.6031,-1.6031,-1.6031,-1.6031,-1.6031,0,-1.5996,-1.5998,-1.6004,-1.601,-1.6016,-1.6011,-1.6015,-1.6019,-1.6027,-1.603,-1.6035,-1.6043,-1.6049,-1.6048,-1.6053,-1.6058,-1.6056,-1.606,-1.6059,-1.606,-1.6037,-1.6034,-1.6062,-1.6062,-1.6062,-1.6062,-1.6062,-1.6062,-1.601,-1.6021,-1.6021,-1.6034,-1.6035,-1.6044,-1.6047,-1.605,-1.6053,-1.6062,-1.6068,-1.6068,-1.6069,-1.6075,-1.608,-1.608,-1.6082,-1.6087,-1.6086,-1.6064,-1.6061,-1.6058,-1.6056,-1.6088,-1.6088,-1.6108,-1.6108,-1.6108]}]]